Weather observations for the past three days for
Sikeston Memorial Municipal Airport
Metric (Imperial)
Date Time (cdt) Wind (kph) Vis. (km) Weather Sky Cond. Temperature (ºC) Relative Humidity Wind Chill (°C) Heat Index (°C) Pressure Precipitation (cm)
Air Dwpt 6 hour altimeter (cm) sea level (mb) 1 hr 3 hr 6 hr
Max. Min.
05 10:15 Vrbl 6 16.09 Fair CLR 34.7 23.6 52% 41 76.07 0.0
05 09:55 Vrbl 6 16.09 Fair CLR 32.9 24.3 61% 39 76.07 0.0
05 09:35 N 6 16.09 Fair CLR 32.5 24.6 63% 39 76.07 0.0
05 09:15 N 7 16.09 Fair CLR 31.7 24.5 66% 38 76.07 0.0
05 08:55 N 7 16.09 Fair CLR 30 25.9 79% 37 76.05 0.0
05 08:35 Calm 16.09 Fair CLR 28.7 26.4 87% 35 76.07 0.0
05 08:15 Calm 16.09 Fair CLR 27.6 26.5 94% 33 76.05 0.0
05 07:55 Calm 12.87 Fair CLR 26.1 25.9 99% 29 76.05 0.0
05 06:35 Calm 12.87 Fair CLR 23.3 23.3 100% 76 0.0
05 06:15 Calm 14.48 Fair CLR 23.7 23.7 100% 76 0.0
05 05:55 Calm 14.48 NULL NULL 23.5 23.5 100% 75.97 0.0
05 05:35 Calm 14.48 NULL NULL 23.7 23.7 100% 75.97 0.0
05 05:15 Calm 14.48 Fair CLR 24 24 100% 23 75.97 0.0
05 04:55 Calm 16.09 Fair CLR 23.7 23.7 100% 75.95 0.0
05 04:35 Calm 16.09 Fair CLR 23.8 23.8 100% 75.95 0.0
05 04:15 Calm 16.09 Fair CLR 24.2 24.2 100% 23 75.95 0.0
05 03:55 Calm 14.48 Fair CLR 24.4 24.4 100% 24 75.95 0.0
05 03:35 Calm 16.09 Fair CLR 24.4 24.4 100% 24 75.97 0.0
05 03:15 Calm 16.09 Fair CLR 24.1 24.1 100% 23 75.97 0.0
05 02:55 Calm 16.09 Fair CLR 24.7 24.7 100% 24 75.97 0.0
05 02:35 Calm 16.09 Fair CLR 24.9 24.9 100% 25 75.97 0.0
05 02:15 Calm 16.09 Fair CLR 25.3 25.3 100% 26 75.97 0.0
05 01:55 Calm 16.09 Fair CLR 25.5 25.5 100% 27 76 0.0
05 01:35 Calm 16.09 Fair CLR 25.6 25.4 99% 27 76 0.0
05 01:15 Calm 16.09 Fair CLR 25.4 25.4 100% 27 76 0.0
05 00:55 Calm 16.09 Fair CLR 25.6 25.4 33.2 25.6 99% 27 76.02 0.0
05 00:35 Calm 16.09 Fair CLR 26 25.6 98% 28 76.02 0.0
05 00:15 Calm 14.48 Fair CLR 26.1 25.7 98% 29 76.02 0.0
04 23:55 NW 6 16.09 Fair CLR 26.6 25.7 95% 30 76.02 0.0
04 23:35 Calm 16.09 Fair CLR 26.6 25.5 94% 30 76.02 0.0
04 23:15 Calm 16.09 Fair CLR 26.9 25.7 93% 31 76 0.0
04 22:55 Calm 16.09 Fair CLR 27.5 25.4 88% 32 76.02 0.0
04 22:35 Calm 16.09 Fair CLR 27.4 25.8 91% 32 76.02 0.0
04 22:15 Calm 16.09 Fair CLR 27.7 25.8 89% 33 76.02 0.0
04 21:55 SE 6 16.09 Fair CLR 27.1 25.9 93% 31 76.02 0.0
04 21:35 SE 7 16.09 Fair CLR 28.2 25.6 86% 34 76 0.0
04 21:15 Calm 16.09 Fair CLR 28.1 26.1 89% 34 76.02 0.0
04 20:55 Calm 16.09 NULL NULL 29.4 25 77% 35 76 0.0
04 20:35 Calm 16.09 NULL NULL 29.7 24.7 75% 35 76 0.0
04 20:15 E 6 16.09 Fair CLR 29.9 25.1 75% 36 75.97 0.0
04 19:55 Calm 16.09 Fair CLR 30.7 24.8 71% 37 75.95 0.0
04 19:35 Calm 16.09 Fair CLR 30.9 25.3 72% 38 75.95 0.0
04 19:15 Calm 14.48 Fair CLR 32.6 24.3 62% 39 75.95 0.0
04 18:55 Calm 14.48 Fair CLR 33.7 24.5 38 33.5 59% 41 75.95 0.0
04 18:35 E 6 14.48 Fair CLR 33.5 26 65% 43 75.95 0.0
04 18:15 E 7 14.48 Fair CLR 34 25.7 62% 43 75.95 0.0
04 17:55 E 6 16.09 Partly Cloudy SCT060 36.3 22.9 46% 42 75.95 0.0
04 17:35 NE 6 16.09 Fair CLR 36.6 22.8 45% 42 75.95 0.0
04 17:15 Calm 14.48 Fair CLR 36.6 21.9 43% 41 75.95 0.0
04 16:55 Calm 16.09 Fair CLR 36.9 21.8 42% 42 75.95 0.0
04 16:35 E 7 16.09 Fair CLR 35.6 23.9 51% 42 75.97 0.0
04 16:15 E 7 16.09 A Few Clouds FEW070 35.6 24.5 53% 43 76 0.0
04 15:55 Calm 14.48 A Few Clouds FEW070 36.4 22.7 45% 42 76.02 0.0
04 15:35 Calm 16.09 Mostly Cloudy SCT070 BKN090 36.6 22.4 44% 42 76.02 0.0
04 15:15 W 6 16.09 Mostly Cloudy BKN070 36.4 21.4 42% 41 76.02 0.0
04 14:55 Vrbl 6 16.09 A Few Clouds FEW080 36.8 21.3 41% 41 76.05 0.0
04 14:35 Calm 16.09 Partly Cloudy SCT080 36.3 20.9 41% 40 76.07 0.0
04 14:15 Calm 16.09 Fair CLR 36.6 21.4 41% 41 76.1 0.0
04 13:55 SW 7 16.09 Fair CLR 37.6 21.6 39% 42 76.12 0.0
04 13:35 NE 7 16.09 Fair CLR 37.2 21.6 40% 42 76.12 0.0
04 13:15 Calm 16.09 Fair CLR 37.7 21.9 40% 43 76.15 0.0
04 12:55 NE 6 16.09 Fair CLR 36.9 22.1 37.9 23.7 42% 42 76.15 0.0
04 12:35 Calm 16.09 Fair CLR 37.6 22 40% 43 76.17 0.0
04 12:15 Calm 16.09 NULL NULL 37.3 21.9 41% 42 76.17 0.0
04 11:35 SW 7 16.09 Fair CLR 36.5 22.6 45% 42 76.2 0.0
04 10:15 Calm 16.09 Fair CLR 33.7 24.4 58% 41 76.2 0.0
04 09:55 Calm 16.09 Fair CLR 33.1 24.7 61% 40 76.2 0.0
04 09:35 Calm 16.09 Fair CLR 32.3 24.9 65% 39 76.17 0.0
04 09:15 Calm 16.09 Fair CLR 31.6 26 72% 40 76.17 0.0
04 08:55 Calm 16.09 Fair CLR 30.1 26.1 79% 38 76.17 0.0
04 08:35 Calm 16.09 Fair CLR 29.2 26.2 84% 36 76.17 0.0
04 08:15 Calm 16.09 Fair CLR 28 26.1 89% 34 76.17 0.0
04 07:55 Calm 12.87 Fair CLR 26.4 25.5 95% 29 76.15 0.0
04 07:35 Calm 14.48 Fair CLR 25.5 25.2 98% 27 76.15 0.0
04 07:15 Calm 14.48 Fair CLR 24.4 24.4 100% 24 76.12 0.0
04 06:55 Calm 12.87 Fair CLR 23.4 23.4 26.4 23.2 100% 76.12 0.0
04 06:35 Calm 12.87 Fair CLR 23.5 23.5 100% 76.12 0.0
04 06:15 Calm 16.09 Fair CLR 23.7 23.7 100% 76.1 0.0
04 05:55 Calm 16.09 Fair CLR 23.2 23.2 100% 76.07 0.0
04 05:35 Calm 16.09 Fair CLR 23.3 23.3 100% 76.07 0.0
04 05:15 Calm 16.09 Fair CLR 23.7 23.7 100% 76.07 0.0
04 04:55 Calm 14.48 Fair CLR 23.6 23.6 100% 76.07 0.0
04 04:35 Calm 16.09 Fair CLR 23.7 23.7 100% 76.05 0.0
04 04:15 Calm 16.09 Fair CLR 24.3 24.3 100% 23 76.05 0.0
04 03:55 Calm 16.09 Fair CLR 24.6 24.6 100% 24 76.02 0.0
04 03:35 Calm 16.09 NULL NULL 24.7 24.7 100% 24 76.05 0.0
04 03:15 NW 9 16.09 NULL NULL 24.8 24.7 99% 25 76.02 0.0
04 02:55 Calm 16.09 Fair CLR 24.9 24.6 98% 25 76.02 0.0
04 02:35 Calm 16.09 Fair CLR 24.9 24.6 98% 25 76.02 0.0
04 02:15 Calm 16.09 Fair CLR 25.6 24.8 95% 27 76.02 0.0
04 01:55 Calm 16.09 Fair CLR 25.3 24.8 97% 26 76.02 0.0
04 01:35 Calm 16.09 Fair CLR 25.5 25 97% 27 76.02 0.0
04 01:15 Calm 16.09 Fair CLR 25.9 24.8 94% 28 76.05 0.0
04 00:55 Calm 16.09 Fair CLR 26.2 24.9 34 26 93% 29 76.05 0.0
04 00:35 Calm 16.09 Fair CLR 26.8 25 90% 30 76.05 0.0
04 00:15 Calm 16.09 Fair CLR 26.6 25.3 93% 30 76.05 0.0
03 23:55 Calm 16.09 Fair CLR 26.5 25.3 93% 30 76.05 0.0
03 23:35 Calm 16.09 Fair CLR 26.6 25 91% 30 76.05 0.0
03 23:15 Calm 16.09 Fair CLR 26.9 25.1 90% 30 76.07 0.0
03 22:55 Calm 16.09 Fair CLR 27.3 25.4 89% 32 76.07 0.0
03 22:35 Calm 16.09 Fair CLR 27.4 25.1 87% 32 76.07 0.0
03 22:15 Calm 16.09 Fair CLR 27.4 25.2 88% 32 76.07 0.0
03 21:55 Calm 16.09 Fair CLR 27.3 25.2 88% 31 76.07 0.0
03 21:35 Calm 16.09 Fair CLR 27.6 25.1 86% 32 76.07 0.0
03 21:15 Calm 16.09 Fair CLR 28.9 23.8 74% 33 76.05 0.0
03 20:55 Calm 16.09 Fair CLR 28.6 24.2 77% 33 76.02 0.0
03 20:35 SE 6 16.09 Fair CLR 29.8 23.6 69% 34 76.02 0.0
03 20:15 SE 7 16.09 Fair CLR 30 23.6 69% 35 76.02 0.0
03 19:55 SE 7 16.09 Fair CLR 30.8 23.4 65% 36 76.02 0.0
03 19:35 SE 7 14.48 Fair CLR 31.5 23.3 62% 36 76.02 0.0
03 19:15 SE 7 14.48 Fair CLR 32.8 23 56% 38 76 0.0
03 18:55 SE 6 16.09 Fair CLR 34.5 22.2 37.6 34.5 49% 39 76 0.0
03 18:35 S 7 16.09 NULL NULL 34.9 22.2 48% 40 75.97 0.0
03 18:15 S 9 16.09 NULL NULL 35.5 22.5 47% 41 75.97 0.0
03 17:55 S 7 16.09 Fair CLR 36 22 44% 41 75.97 0.0
03 17:35 S 6 16.09 Fair CLR 36.5 21.9 43% 41 76 0.0
03 17:15 SW 7 16.09 Fair CLR 36.7 21.7 42% 41 75.97 0.0
03 16:55 S 9 16.09 Fair CLR 37 21.9 42% 42 75.97 0.0
03 16:35 S 7 16.09 Fair CLR 36.8 22.4 43% 42 76 0.0
03 16:15 S 11 14.48 Fair CLR 37 21.7 41% 42 76 0.0
03 15:55 S 11 16.09 Fair CLR 37.1 21.3 40% 41 76.02 0.0
03 15:35 Vrbl 6 16.09 Fair CLR 36.9 21.3 40% 41 76.02 0.0
03 15:15 SE 11 16.09 Fair CLR 37.5 21.2 39% 42 76.05 0.0
03 14:55 S 15 16.09 A Few Clouds FEW065 37.6 21.5 39% 42 76.05 0.0
03 14:35 S 11 16.09 A Few Clouds FEW065 37.2 21.6 40% 42 76.07 0.0
03 14:15 SW 11 16.09 A Few Clouds FEW065 36.6 21.2 41% 41 76.07 0.0
03 13:55 S 6 16.09 A Few Clouds FEW065 36.2 21.5 42% 40 76.1 0.0
03 13:35 S 11 16.09 Fair CLR 35.8 21.3 43% 40 76.12 0.0
03 13:15 Vrbl 6 16.09 Fair CLR 37.3 21.8 41% 42 76.12 0.0
03 12:55 SW 9 16.09 Fair CLR 36.6 21.4 36.6 23.6 41% 41 76.15 0.0
03 12:35 SW 7 16.09 Fair CLR 36.3 21 41% 40 76.15 0.0
03 12:15 W 7 16.09 Fair CLR 36 21.9 44% 41 76.17 0.0
03 11:55 Vrbl 6 16.09 Fair CLR 36.1 21.5 43% 40 76.2 0.0
03 11:35 Vrbl 6 16.09 Fair CLR 36.1 21.9 44% 41 76.2 0.0
03 11:15 Vrbl 6 16.09 Fair CLR 35.5 22.5 47% 41 76.23 0.0
03 10:55 Calm 16.09 Fair CLR 34.6 22.5 49% 39 76.23 0.0
03 10:35 Calm 16.09 Fair CLR 33.7 22.8 53% 39 76.23 0.0
03 10:15 Calm 16.09 Fair CLR 33.1 23.6 57% 39 76.23 0.0
03 09:55 SW 6 16.09 NULL NULL 32.4 23.6 60% 38 76.23 0.0
03 09:35 SW 7 16.09 NULL NULL 31.7 23 60% 36 76.23 0.0
03 09:15 SW 6 16.09 Fair CLR 31 23.2 63% 36 76.23 0.0
03 08:55 SW 9 16.09 Fair CLR 30.1 22.7 65% 34 76.23 0.0
03 08:35 SW 9 16.09 Fair CLR 29.3 24.3 75% 34 76.23 0.0
03 08:15 Calm 16.09 Fair CLR 27.4 25.2 88% 32 76.23 0.0
03 07:35 Calm 14.48 Fair CLR 25.2 24.9 98% 26 76.23 0.0
03 07:15 Calm 14.48 Fair CLR 23.9 23.9 100% 22 76.23 0.0
03 06:55 Calm 16.09 Fair CLR 23.3 23.3 27.1 22.8 100% 76.2 0.0
03 06:35 Calm 14.48 Fair CLR 22.9 22.9 100% 76.17 0.0
03 06:15 Calm 16.09 Fair CLR 23.1 23.1 100% 76.17 0.0
03 05:55 E 6 16.09 Fair CLR 22.9 22.9 100% 76.17 0.0
03 05:35 E 6 14.48 Fair CLR 22.9 22.9 100% 76.15 0.0
03 05:15 Calm 16.09 Fair CLR 23.2 23.2 100% 76.15 0.0
03 04:55 E 6 14.48 Fair CLR 23.4 23.4 100% 76.15 0.0
03 04:35 Calm 14.48 Fair CLR 23.4 23.4 100% 76.12 0.0
03 04:15 Calm 14.48 Fair CLR 23.4 23.4 100% 76.12 0.0
03 03:55 Calm 16.09 Fair CLR 23.6 23.6 100% 76.15 0.0
03 03:35 Calm 14.48 Fair CLR 24.1 23.8 98% 23 76.12 0.0
03 03:15 S 6 14.48 Fair CLR 24.2 23.8 98% 23 76.12 0.0
03 02:55 Calm 14.48 Fair CLR 24.4 23.9 97% 24 76.12 0.0
03 02:35 Calm 16.09 Fair CLR 24.1 23.9 99% 23 76.12 0.0
03 02:15 Calm 16.09 Fair CLR 25 24.1 95% 26 76.12 0.0
03 01:55 Calm 16.09 Fair CLR 25.7 24.2 91% 27 76.12 0.0
03 01:35 SE 7 16.09 Fair CLR 25.8 24.2 91% 28 76.12 0.0
03 01:15 SE 7 16.09 Fair CLR 26.5 24.2 87% 29 76.15 0.0
03 00:55 SE 7 16.09 NULL NULL 26.4 24.2 33.3 26.1 88% 29 76.12 0.0
03 00:35 SE 7 14.48 NULL NULL 27.3 23.9 82% 31 76.15 0.0
03 00:15 S 7 16.09 Fair CLR 28.2 23.8 77% 32 76.12 0.0
02 23:55 S 6 16.09 Fair CLR 27.3 24.1 83% 31 76.15 0.0
02 23:35 S 6 16.09 Fair CLR 27.6 24 81% 31 76.15 0.0
02 23:15 SE 6 16.09 Fair CLR 27.8 24.1 80% 32 76.15 0.0
02 22:55 Calm 16.09 Fair CLR 27.8 24.3 81% 32 76.15 0.0
02 22:35 SE 7 16.09 Fair CLR 27.3 24.4 84% 31 76.15 0.0
02 22:15 SE 7 16.09 Fair CLR 26.9 24.6 87% 30 76.15 0.0
02 21:55 SE 6 14.48 Fair CLR 26.9 24.6 87% 30 76.15 0.0
02 21:35 Calm 16.09 Fair CLR 27.5 23.7 80% 31 76.12 0.0
02 21:15 Calm 16.09 Fair CLR 27.5 23.9 81% 31 76.12 0.0
02 20:55 Calm 16.09 Fair CLR 27.6 23.8 80% 31 76.12 0.0
02 20:35 Calm 16.09 Fair CLR 28.7 22.7 70% 32 76.1 0.0
02 20:15 Calm 16.09 Fair CLR 29 22.8 69% 33 76.1 0.0
02 19:55 SE 6 14.48 Fair CLR 28.9 23.4 72% 33 76.07 0.0
02 19:35 S 6 14.48 Fair CLR 31.1 22.1 59% 35 76.07 0.0
02 19:15 SE 7 14.48 Fair CLR 32.2 21.6 54% 36 76.07 0.0
02 18:55 S 7 16.09 Fair CLR 33.9 20.9 37.9 33.9 47% 37 76.07 0.0
02 18:35 S 7 14.48 Fair CLR 34.3 20.8 45% 37 76.1 0.0
02 18:15 SE 11 12.87 Fair CLR 35 20.6 43% 38 76.1 0.0
02 17:55 SE 11 16.09 Fair CLR 35.5 20.8 42% 39 76.1 0.0
02 17:35 S 11 16.09 Fair CLR 35.8 20.8 42% 39 76.1 0.0
02 17:15 SE 13 16.09 Fair CLR 36 20.5 40% 39 76.1 0.0
02 16:55 SE 11 16.09 Fair CLR 36.3 20.7 40% 40 76.1 0.0
02 16:35 S 13 16.09 Fair CLR 36.6 21 40% 40 76.12 0.0
02 16:15 SE 11 16.09 Fair CLR 36.7 21.2 40% 41 76.12 0.0
02 15:55 SE 13 16.09 NULL NULL 36.9 20.8 39% 41 76.15 0.0
02 15:35 S 13 16.09 NULL NULL 36.9 21 40% 41 76.15 0.0
02 15:15 S 7 16.09 Mostly Cloudy BKN065 36.4 20.4 39% 40 76.17 0.0
02 14:55 Vrbl 9 16.09 Partly Cloudy SCT065 37.5 21.2 39% 42 76.2 0.0
02 14:35 Vrbl 11 16.09 A Few Clouds FEW065 37.8 21.1 38% 42 76.2 0.0
02 14:15 Vrbl 7 16.09 Fair CLR 37.2 20.9 39% 41 76.23 0.0
02 13:55 S 11 16.09 Fair CLR 36.9 21 40% 41 76.25 0.0
02 13:35 SW 13 16.09 Fair CLR 36.8 21.2 40% 41 76.25 0.0
02 13:15 S 9 16.09 A Few Clouds FEW060 36.7 21.3 41% 41 76.25 0.0
02 12:55 SW 13 16.09 Fair CLR 35.6 21.1 36.6 24.9 43% 39 76.28 0.0
02 12:35 SW 15 16.09 Fair CLR 36.4 21.2 41% 40 76.3 0.0
02 12:15 SW 15 16.09 Fair CLR 36.3 21.5 42% 41 76.3 0.0
02 11:55 SW 9 16.09 Fair CLR 35.8 22 45% 40 76.33 0.0
02 11:35 SW 6 16.09 Fair CLR 35.7 22.3 46% 41 76.33 0.0
02 11:15 SW 11 16.09 Fair CLR 34.7 22.5 49% 40 76.35 0.0
02 10:55 SW 9 16.09 Fair CLR 34.3 23 52% 40 76.35 0.0
02 10:35 SW 7 16.09 Fair CLR 33.6 22.8 53% 39 76.35 0.0
Date Time (cdt) Wind (kph) Vis. (km) Weather Sky Cond. Air Dwpt Max. Min. Relative Humidity Wind Chill (°C) Heat Index (°C) altimeter (cm) sea level (mb) 1 hr 3 hr 6 hr
6 hour
Temperature (ºC) Pressure Precipitation (cm)